Year,Month,Day,Hour,Minute,Value (Times are PST for temperature in C)
2013,05,05,00,00,13.00
2013,05,05,00,01,13.00
2013,05,05,00,02,13.00
2013,05,05,00,03,12.90
2013,05,05,00,04,12.90
2013,05,05,00,05,12.90
2013,05,05,00,06,12.90
2013,05,05,00,07,12.90
2013,05,05,00,08,12.90
2013,05,05,00,09,12.80
2013,05,05,00,10,12.80
2013,05,05,00,11,12.80
2013,05,05,00,12,12.80
2013,05,05,00,13,12.80
2013,05,05,00,14,12.80
2013,05,05,00,15,12.80
2013,05,05,00,16,12.80
2013,05,05,00,17,12.80
2013,05,05,00,18,12.80
2013,05,05,00,19,12.70
2013,05,05,00,20,12.70
2013,05,05,00,21,12.70
2013,05,05,00,22,12.60
2013,05,05,00,23,12.60
2013,05,05,00,24,12.50
2013,05,05,00,25,12.50
2013,05,05,00,26,12.50
2013,05,05,00,27,12.50
2013,05,05,00,28,12.50
2013,05,05,00,29,12.50
2013,05,05,00,30,12.40
2013,05,05,00,31,12.40
2013,05,05,00,32,12.40
2013,05,05,00,33,12.40
2013,05,05,00,34,12.40
2013,05,05,00,35,12.40
2013,05,05,00,36,12.30
2013,05,05,00,37,12.30
2013,05,05,00,38,12.30
2013,05,05,00,39,12.30
2013,05,05,00,40,12.30
2013,05,05,00,41,12.30
2013,05,05,00,42,12.30
2013,05,05,00,43,12.30
2013,05,05,00,44,12.30
2013,05,05,00,45,12.30
2013,05,05,00,46,12.20
2013,05,05,00,47,12.20
2013,05,05,00,48,12.20
2013,05,05,00,49,12.20
2013,05,05,00,50,12.20
2013,05,05,00,51,12.10
2013,05,05,00,52,12.10
2013,05,05,00,53,12.10
2013,05,05,00,54,12.10
2013,05,05,00,55,12.10
2013,05,05,00,56,12.10
2013,05,05,00,57,12.00
2013,05,05,00,58,12.00
2013,05,05,00,59,12.00
2013,05,05,01,00,12.00
2013,05,05,01,01,12.00
2013,05,05,01,02,11.90
2013,05,05,01,03,11.90
2013,05,05,01,04,11.90
2013,05,05,01,05,11.90
2013,05,05,01,06,11.90
2013,05,05,01,07,11.80
2013,05,05,01,08,11.80
2013,05,05,01,09,11.80
2013,05,05,01,10,11.80
2013,05,05,01,11,11.80
2013,05,05,01,12,11.80
2013,05,05,01,13,11.80
2013,05,05,01,14,11.80
2013,05,05,01,15,11.80
2013,05,05,01,16,11.70
2013,05,05,01,17,11.70
2013,05,05,01,18,11.70
2013,05,05,01,19,11.70
2013,05,05,01,20,11.70
2013,05,05,01,21,11.70
2013,05,05,01,22,11.60
2013,05,05,01,23,11.60
2013,05,05,01,24,11.60
2013,05,05,01,25,11.60
2013,05,05,01,26,11.60
2013,05,05,01,27,11.60
2013,05,05,01,28,11.60
2013,05,05,01,29,11.50
2013,05,05,01,30,11.40
2013,05,05,01,31,11.40
2013,05,05,01,32,11.40
2013,05,05,01,33,11.40
2013,05,05,01,34,11.40
2013,05,05,01,35,11.40
2013,05,05,01,36,11.40
2013,05,05,01,37,11.30
2013,05,05,01,38,11.30
2013,05,05,01,39,11.30
2013,05,05,01,40,11.30
2013,05,05,01,41,11.30
2013,05,05,01,42,11.30
2013,05,05,01,43,11.30
2013,05,05,01,44,11.30
2013,05,05,01,45,11.30
2013,05,05,01,46,11.30
2013,05,05,01,47,11.30
2013,05,05,01,48,11.30
2013,05,05,01,49,11.30
2013,05,05,01,50,11.30
2013,05,05,01,51,11.30
2013,05,05,01,52,11.30
2013,05,05,01,53,11.30
2013,05,05,01,54,11.30
2013,05,05,01,55,11.30
2013,05,05,01,56,11.30
2013,05,05,01,57,11.20
2013,05,05,01,58,11.20
2013,05,05,01,59,11.20
2013,05,05,02,00,11.20
2013,05,05,02,01,11.20
2013,05,05,02,02,11.20
2013,05,05,02,03,11.20
2013,05,05,02,04,11.10
2013,05,05,02,05,11.10
2013,05,05,02,06,11.10
2013,05,05,02,07,11.10
2013,05,05,02,08,11.10
2013,05,05,02,09,11.10
2013,05,05,02,10,11.10
2013,05,05,02,11,11.10
2013,05,05,02,12,11.10
2013,05,05,02,13,11.10
2013,05,05,02,14,11.10
2013,05,05,02,15,11.10
2013,05,05,02,16,11.00
2013,05,05,02,17,10.90
2013,05,05,02,18,10.90
2013,05,05,02,19,10.90
2013,05,05,02,20,10.90
2013,05,05,02,21,10.90
2013,05,05,02,22,10.90
2013,05,05,02,23,10.90
2013,05,05,02,24,10.90
2013,05,05,02,25,10.90
2013,05,05,02,26,10.90
2013,05,05,02,27,10.90
2013,05,05,02,28,10.90
2013,05,05,02,29,10.90
2013,05,05,02,30,10.90
2013,05,05,02,31,10.80
2013,05,05,02,32,10.80
2013,05,05,02,33,10.80
2013,05,05,02,34,10.80
2013,05,05,02,35,10.70
2013,05,05,02,36,10.70
2013,05,05,02,37,10.70
2013,05,05,02,38,10.70
2013,05,05,02,39,10.70
2013,05,05,02,40,10.70
2013,05,05,02,41,10.60
2013,05,05,02,42,10.60
2013,05,05,02,43,10.60
2013,05,05,02,44,10.60
2013,05,05,02,45,10.60
2013,05,05,02,46,10.60
2013,05,05,02,47,10.60
2013,05,05,02,48,10.60
2013,05,05,02,49,10.50
2013,05,05,02,50,10.40
2013,05,05,02,51,10.40
2013,05,05,02,52,10.40
2013,05,05,02,53,10.40
2013,05,05,02,54,10.40
2013,05,05,02,55,10.40
2013,05,05,02,56,10.40
2013,05,05,02,57,10.50
2013,05,05,02,58,10.60
2013,05,05,02,59,10.60
2013,05,05,03,00,10.60
2013,05,05,03,01,10.60
2013,05,05,03,02,10.60
2013,05,05,03,03,10.60
2013,05,05,03,04,10.60
2013,05,05,03,05,10.60
2013,05,05,03,06,10.60
2013,05,05,03,07,10.60
2013,05,05,03,08,10.60
2013,05,05,03,09,10.60
2013,05,05,03,10,10.60
2013,05,05,03,11,10.60
2013,05,05,03,12,10.60
2013,05,05,03,13,10.60
2013,05,05,03,14,10.60
2013,05,05,03,15,10.60
2013,05,05,03,16,10.60
2013,05,05,03,17,10.60
2013,05,05,03,18,10.60
2013,05,05,03,19,10.60
2013,05,05,03,20,10.50
2013,05,05,03,21,10.40
2013,05,05,03,22,10.40
2013,05,05,03,23,10.40
2013,05,05,03,24,10.40
2013,05,05,03,25,10.40
2013,05,05,03,26,10.40
2013,05,05,03,27,10.30
2013,05,05,03,28,10.30
2013,05,05,03,29,10.30
2013,05,05,03,30,10.30
2013,05,05,03,31,10.20
2013,05,05,03,32,10.20
2013,05,05,03,33,10.20
2013,05,05,03,34,10.20
2013,05,05,03,35,10.10
2013,05,05,03,36,10.10
2013,05,05,03,37,10.10
2013,05,05,03,38,10.10
2013,05,05,03,39,10.10
2013,05,05,03,40,10.10
2013,05,05,03,41,10.10
2013,05,05,03,42,10.10
2013,05,05,03,43,10.10
2013,05,05,03,44,10.10
2013,05,05,03,45,10.10
2013,05,05,03,46,10.10
2013,05,05,03,47,10.10
2013,05,05,03,48,10.10
2013,05,05,03,49,10.10
2013,05,05,03,50,10.10
2013,05,05,03,51,10.10
2013,05,05,03,52,10.20
2013,05,05,03,53,10.20
2013,05,05,03,54,10.20
2013,05,05,03,55,10.20
2013,05,05,03,56,10.20
2013,05,05,03,57,10.20
2013,05,05,03,58,10.20
2013,05,05,03,59,10.20
2013,05,05,04,00,10.20
2013,05,05,04,01,10.20
2013,05,05,04,02,10.20
2013,05,05,04,03,10.30
2013,05,05,04,04,10.30
2013,05,05,04,05,10.30
2013,05,05,04,06,10.30
2013,05,05,04,07,10.30
2013,05,05,04,08,10.30
2013,05,05,04,09,10.30
2013,05,05,04,10,10.30
2013,05,05,04,11,10.30
2013,05,05,04,12,10.20
2013,05,05,04,13,10.20
2013,05,05,04,14,10.20
2013,05,05,04,15,10.20
2013,05,05,04,16,10.10
2013,05,05,04,17,10.10
2013,05,05,04,18,10.10
2013,05,05,04,19,10.10
2013,05,05,04,20,10.10
2013,05,05,04,21,10.00
2013,05,05,04,22,9.90
2013,05,05,04,23,9.90
2013,05,05,04,24,9.90
2013,05,05,04,25,9.90
2013,05,05,04,26,9.90
2013,05,05,04,27,9.90
2013,05,05,04,28,9.90
2013,05,05,04,29,9.90
2013,05,05,04,30,9.90
2013,05,05,04,31,9.90
2013,05,05,04,32,9.90
2013,05,05,04,33,9.90
2013,05,05,04,34,9.80
2013,05,05,04,35,9.80
2013,05,05,04,36,9.80
2013,05,05,04,37,9.80
2013,05,05,04,38,9.80
2013,05,05,04,39,9.80
2013,05,05,04,40,9.80
2013,05,05,04,41,9.80
2013,05,05,04,42,9.90
2013,05,05,04,43,9.90
2013,05,05,04,44,9.90
2013,05,05,04,45,9.90
2013,05,05,04,46,9.90
2013,05,05,04,47,9.90
2013,05,05,04,48,9.90
2013,05,05,04,49,9.90
2013,05,05,04,50,9.90
2013,05,05,04,51,9.90
2013,05,05,04,52,9.90
2013,05,05,04,53,9.90
2013,05,05,04,54,9.90
2013,05,05,04,55,9.90
2013,05,05,04,56,9.90
2013,05,05,04,57,9.90
2013,05,05,04,58,9.90
2013,05,05,04,59,9.90
2013,05,05,05,00,9.80
2013,05,05,05,01,9.80
2013,05,05,05,02,9.80
2013,05,05,05,03,9.80
2013,05,05,05,04,9.80
2013,05,05,05,05,9.80
2013,05,05,05,06,9.70
2013,05,05,05,07,9.70
2013,05,05,05,08,9.70
2013,05,05,05,09,9.70
2013,05,05,05,10,9.70
2013,05,05,05,11,9.70
2013,05,05,05,12,9.70
2013,05,05,05,13,9.70
2013,05,05,05,14,9.70
2013,05,05,05,15,9.70
2013,05,05,05,16,9.70
2013,05,05,05,17,9.70
2013,05,05,05,18,9.70
2013,05,05,05,19,9.60
2013,05,05,05,20,9.60
2013,05,05,05,21,9.60
2013,05,05,05,22,9.60
2013,05,05,05,23,9.60
2013,05,05,05,24,9.60
2013,05,05,05,25,9.50
2013,05,05,05,26,9.50
2013,05,05,05,27,9.50
2013,05,05,05,28,9.50
2013,05,05,05,29,9.50
2013,05,05,05,30,9.40
2013,05,05,05,31,9.40
2013,05,05,05,32,9.40
2013,05,05,05,33,9.40
2013,05,05,05,34,9.30
2013,05,05,05,35,9.30
2013,05,05,05,36,9.30
2013,05,05,05,37,9.30
2013,05,05,05,38,9.20
2013,05,05,05,39,9.20
2013,05,05,05,40,9.20
2013,05,05,05,41,9.20
2013,05,05,05,42,9.20
2013,05,05,05,43,9.20
2013,05,05,05,44,9.20
2013,05,05,05,45,9.20
2013,05,05,05,46,9.20
2013,05,05,05,47,9.20
2013,05,05,05,48,9.10
2013,05,05,05,49,9.10
2013,05,05,05,50,9.10
2013,05,05,05,51,9.10
2013,05,05,05,52,9.10
2013,05,05,05,53,9.00
2013,05,05,05,54,9.00
2013,05,05,05,55,9.00
2013,05,05,05,56,9.00
2013,05,05,05,57,9.10
2013,05,05,05,58,9.10
2013,05,05,05,59,9.00
2013,05,05,06,00,9.00
2013,05,05,06,01,9.00
2013,05,05,06,02,9.00
2013,05,05,06,03,9.00
2013,05,05,06,04,9.00
2013,05,05,06,05,9.00
2013,05,05,06,06,9.00
2013,05,05,06,07,9.00
2013,05,05,06,08,9.00
2013,05,05,06,09,9.00
2013,05,05,06,10,9.00
2013,05,05,06,11,9.00
2013,05,05,06,12,9.00
2013,05,05,06,13,9.00
2013,05,05,06,14,9.00
2013,05,05,06,15,9.00
2013,05,05,06,16,8.90
2013,05,05,06,17,8.90
2013,05,05,06,18,8.90
2013,05,05,06,19,8.90
2013,05,05,06,20,8.90
2013,05,05,06,21,8.90
2013,05,05,06,22,8.90
2013,05,05,06,23,8.90
2013,05,05,06,24,8.90
2013,05,05,06,25,8.90
2013,05,05,06,26,9.00
2013,05,05,06,27,9.00
2013,05,05,06,28,9.00
2013,05,05,06,29,9.10
2013,05,05,06,30,9.10
2013,05,05,06,31,9.10
2013,05,05,06,32,9.20
2013,05,05,06,33,9.20
2013,05,05,06,34,9.20
2013,05,05,06,35,9.20
2013,05,05,06,36,9.30
2013,05,05,06,37,9.30
2013,05,05,06,38,9.30
2013,05,05,06,39,9.40
2013,05,05,06,40,9.40
2013,05,05,06,41,9.50
2013,05,05,06,42,9.60
2013,05,05,06,43,9.60
2013,05,05,06,44,9.70
2013,05,05,06,45,9.70
2013,05,05,06,46,9.70
2013,05,05,06,47,9.70
2013,05,05,06,48,9.80
2013,05,05,06,49,9.90
2013,05,05,06,50,9.90
2013,05,05,06,51,10.00
2013,05,05,06,52,10.10
2013,05,05,06,53,10.20
2013,05,05,06,54,10.30
2013,05,05,06,55,10.40
2013,05,05,06,56,10.40
2013,05,05,06,57,10.50
2013,05,05,06,58,10.60
2013,05,05,06,59,10.70
2013,05,05,07,00,10.80
2013,05,05,07,01,10.80
2013,05,05,07,02,10.90
2013,05,05,07,03,11.00
2013,05,05,07,04,11.10
2013,05,05,07,05,11.20
2013,05,05,07,06,11.20
2013,05,05,07,07,11.30
2013,05,05,07,08,11.40
2013,05,05,07,09,11.40
2013,05,05,07,10,11.40
2013,05,05,07,11,11.50
2013,05,05,07,12,11.60
2013,05,05,07,13,11.60
2013,05,05,07,14,11.60
2013,05,05,07,15,11.60
2013,05,05,07,16,11.70
2013,05,05,07,17,11.70
2013,05,05,07,18,11.80
2013,05,05,07,19,11.80
2013,05,05,07,20,11.90
2013,05,05,07,21,11.90
2013,05,05,07,22,12.00
2013,05,05,07,23,12.10
2013,05,05,07,24,12.20
2013,05,05,07,25,12.30
2013,05,05,07,26,12.40
2013,05,05,07,27,12.50
2013,05,05,07,28,12.60
2013,05,05,07,29,12.70
2013,05,05,07,30,12.80
2013,05,05,07,31,12.80
2013,05,05,07,32,12.90
2013,05,05,07,33,12.90
2013,05,05,07,34,13.00
2013,05,05,07,35,13.00
2013,05,05,07,36,13.10
2013,05,05,07,37,13.20
2013,05,05,07,38,13.20
2013,05,05,07,39,13.30
2013,05,05,07,40,13.30
2013,05,05,07,41,13.50
2013,05,05,07,42,13.60
2013,05,05,07,43,13.70
2013,05,05,07,44,13.80
2013,05,05,07,45,13.90
2013,05,05,07,46,14.00
2013,05,05,07,47,14.00
2013,05,05,07,48,14.10
2013,05,05,07,49,14.20
2013,05,05,07,50,14.20
2013,05,05,07,51,14.40
2013,05,05,07,52,14.50
2013,05,05,07,53,14.60
2013,05,05,07,54,14.60
2013,05,05,07,55,14.70
2013,05,05,07,56,14.70
2013,05,05,07,57,14.80
2013,05,05,07,58,14.80
2013,05,05,07,59,14.90
2013,05,05,08,00,15.00
2013,05,05,08,01,15.10
2013,05,05,08,02,15.10
2013,05,05,08,03,15.20
2013,05,05,08,04,15.30
2013,05,05,08,05,15.30
2013,05,05,08,06,15.40
2013,05,05,08,07,15.50
2013,05,05,08,08,15.50
2013,05,05,08,09,15.70
2013,05,05,08,10,15.80
2013,05,05,08,11,15.90
2013,05,05,08,12,16.00
2013,05,05,08,13,16.10
2013,05,05,08,14,16.10
2013,05,05,08,15,16.10
2013,05,05,08,16,16.10
2013,05,05,08,17,16.10
2013,05,05,08,18,16.10
2013,05,05,08,19,16.10
2013,05,05,08,20,16.10
2013,05,05,08,21,16.10
2013,05,05,08,22,16.10
2013,05,05,08,23,16.20
2013,05,05,08,24,16.20
2013,05,05,08,25,16.30
2013,05,05,08,26,16.40
2013,05,05,08,27,16.50
2013,05,05,08,28,16.60
2013,05,05,08,29,16.70
2013,05,05,08,30,16.70
2013,05,05,08,31,16.70
2013,05,05,08,32,16.80
2013,05,05,08,33,16.90
2013,05,05,08,34,17.00
2013,05,05,08,35,17.00
2013,05,05,08,36,17.10
2013,05,05,08,37,17.30
2013,05,05,08,38,17.30
2013,05,05,08,39,17.40
2013,05,05,08,40,17.50
2013,05,05,08,41,17.70
2013,05,05,08,42,17.80
2013,05,05,08,43,17.90
2013,05,05,08,44,17.90
2013,05,05,08,45,18.10
2013,05,05,08,46,18.20
2013,05,05,08,47,18.30
2013,05,05,08,48,18.40
2013,05,05,08,49,18.50
2013,05,05,08,50,18.60
2013,05,05,08,51,18.70
2013,05,05,08,52,18.80
2013,05,05,08,53,18.80
2013,05,05,08,54,18.70
2013,05,05,08,55,18.70
2013,05,05,08,56,18.60
2013,05,05,08,57,18.50
2013,05,05,08,58,18.50
2013,05,05,08,59,18.50
2013,05,05,09,00,18.50
2013,05,05,09,01,18.50
2013,05,05,09,02,18.50
2013,05,05,09,03,18.50
2013,05,05,09,04,18.60
2013,05,05,09,05,18.60
2013,05,05,09,06,18.70
2013,05,05,09,07,18.90
2013,05,05,09,08,18.90
2013,05,05,09,09,19.10
2013,05,05,09,10,19.20
2013,05,05,09,11,19.40
2013,05,05,09,12,19.40
2013,05,05,09,13,19.60
2013,05,05,09,14,19.60
2013,05,05,09,15,19.80
2013,05,05,09,16,19.90
2013,05,05,09,17,20.00
2013,05,05,09,18,20.10
2013,05,05,09,19,20.20
2013,05,05,09,20,20.20
2013,05,05,09,21,20.30
2013,05,05,09,22,20.30
2013,05,05,09,23,20.20
2013,05,05,09,24,20.20
2013,05,05,09,25,20.30
2013,05,05,09,26,20.30
2013,05,05,09,27,20.30
2013,05,05,09,28,20.40
2013,05,05,09,29,20.50
2013,05,05,09,30,20.50
2013,05,05,09,31,20.50
2013,05,05,09,32,20.60
2013,05,05,09,33,20.60
2013,05,05,09,34,20.60
2013,05,05,09,35,20.70
2013,05,05,09,36,20.70
2013,05,05,09,37,20.80
2013,05,05,09,38,20.80
2013,05,05,09,39,20.80
2013,05,05,09,40,20.80
2013,05,05,09,41,20.80
2013,05,05,09,42,20.80
2013,05,05,09,43,20.80
2013,05,05,09,44,20.80
2013,05,05,09,45,20.80
2013,05,05,09,46,20.90
2013,05,05,09,47,20.90
2013,05,05,09,48,20.90
2013,05,05,09,49,21.00
2013,05,05,09,50,21.10
2013,05,05,09,51,21.30
2013,05,05,09,52,21.40
2013,05,05,09,53,21.50
2013,05,05,09,54,21.60
2013,05,05,09,55,21.70
2013,05,05,09,56,21.80
2013,05,05,09,57,21.80
2013,05,05,09,58,21.90
2013,05,05,09,59,22.00
2013,05,05,10,00,22.00
2013,05,05,10,01,22.00
2013,05,05,10,02,22.10
2013,05,05,10,03,22.10
2013,05,05,10,04,22.10
2013,05,05,10,05,22.10
2013,05,05,10,06,22.10
2013,05,05,10,07,22.20
2013,05,05,10,08,22.30
2013,05,05,10,09,22.30
2013,05,05,10,10,22.40
2013,05,05,10,11,22.50
2013,05,05,10,12,22.60
2013,05,05,10,13,22.80
2013,05,05,10,14,22.90
2013,05,05,10,15,23.10
2013,05,05,10,16,23.20
2013,05,05,10,17,23.30
2013,05,05,10,18,23.30
2013,05,05,10,19,23.30
2013,05,05,10,20,23.40
2013,05,05,10,21,23.40
2013,05,05,10,22,23.30
2013,05,05,10,23,23.30
2013,05,05,10,24,23.30
2013,05,05,10,25,23.30
2013,05,05,10,26,23.30
2013,05,05,10,27,23.30
2013,05,05,10,28,23.30
2013,05,05,10,29,23.30
2013,05,05,10,30,23.50
2013,05,05,10,31,23.60
2013,05,05,10,32,23.70
2013,05,05,10,33,23.60
2013,05,05,10,34,23.60
2013,05,05,10,35,23.60
2013,05,05,10,36,23.70
2013,05,05,10,37,23.70
2013,05,05,10,38,23.70
2013,05,05,10,39,23.70
2013,05,05,10,40,23.60
2013,05,05,10,41,23.50
2013,05,05,10,42,23.40
2013,05,05,10,43,23.40
2013,05,05,10,44,23.40
2013,05,05,10,45,23.40
2013,05,05,10,46,23.40
2013,05,05,10,47,23.40
2013,05,05,10,48,23.40
2013,05,05,10,49,23.40
2013,05,05,10,50,23.60
2013,05,05,10,51,23.60
2013,05,05,10,52,23.60
2013,05,05,10,53,23.60
2013,05,05,10,54,23.60
2013,05,05,10,55,23.60
2013,05,05,10,56,23.80
2013,05,05,10,57,23.90
2013,05,05,10,58,24.00
2013,05,05,10,59,24.10
2013,05,05,11,00,24.10
2013,05,05,11,01,24.20
2013,05,05,11,02,24.30
2013,05,05,11,03,24.30
2013,05,05,11,04,24.20
2013,05,05,11,05,24.10
2013,05,05,11,06,24.10
2013,05,05,11,07,24.20
2013,05,05,11,08,24.20
2013,05,05,11,09,24.20
2013,05,05,11,10,24.20
2013,05,05,11,11,24.20
2013,05,05,11,12,24.20
2013,05,05,11,13,24.30
2013,05,05,11,14,24.30
2013,05,05,11,15,24.30
2013,05,05,11,16,24.30
2013,05,05,11,17,24.30
2013,05,05,11,18,24.20
2013,05,05,11,19,24.20
2013,05,05,11,20,24.20
2013,05,05,11,21,24.20
2013,05,05,11,22,24.30
2013,05,05,11,23,24.30
2013,05,05,11,24,24.30
2013,05,05,11,25,24.30
2013,05,05,11,26,24.30
2013,05,05,11,27,24.20
2013,05,05,11,28,24.20
2013,05,05,11,29,24.30
2013,05,05,11,30,24.30
2013,05,05,11,31,24.40
2013,05,05,11,32,24.50
2013,05,05,11,33,24.50
2013,05,05,11,34,24.50
2013,05,05,11,35,24.50
2013,05,05,11,36,24.60
2013,05,05,11,37,24.60
2013,05,05,11,38,24.70
2013,05,05,11,39,24.80
2013,05,05,11,40,25.00
2013,05,05,11,41,25.20
2013,05,05,11,42,25.20
2013,05,05,11,43,25.20
2013,05,05,11,44,25.20
2013,05,05,11,45,25.10
2013,05,05,11,46,25.10
2013,05,05,11,47,25.10
2013,05,05,11,48,25.10
2013,05,05,11,49,25.00
2013,05,05,11,50,25.10
2013,05,05,11,51,25.10
2013,05,05,11,52,25.20
2013,05,05,11,53,25.10
2013,05,05,11,54,25.20
2013,05,05,11,55,25.20
2013,05,05,11,56,25.30
2013,05,05,11,57,25.40
2013,05,05,11,58,25.50
2013,05,05,11,59,25.50
2013,05,05,12,00,25.60
2013,05,05,12,01,25.70
2013,05,05,12,02,25.80
2013,05,05,12,03,25.90
2013,05,05,12,04,25.90
2013,05,05,12,05,26.00
2013,05,05,12,06,26.00
2013,05,05,12,07,25.90
2013,05,05,12,08,25.90
2013,05,05,12,09,25.80
2013,05,05,12,10,25.80
2013,05,05,12,11,25.80
2013,05,05,12,12,25.70
2013,05,05,12,13,25.70
2013,05,05,12,14,25.70
2013,05,05,12,15,25.70
2013,05,05,12,16,25.70
2013,05,05,12,17,25.80
2013,05,05,12,18,25.90
2013,05,05,12,19,26.00
2013,05,05,12,20,26.10
2013,05,05,12,21,26.20
2013,05,05,12,22,26.20
2013,05,05,12,23,26.20
2013,05,05,12,24,26.10
2013,05,05,12,25,26.10
2013,05,05,12,26,26.20
2013,05,05,12,27,26.20
2013,05,05,12,28,26.20
2013,05,05,12,29,26.20
2013,05,05,12,30,26.10
2013,05,05,12,31,26.00
2013,05,05,12,32,26.00
2013,05,05,12,33,26.00
2013,05,05,12,34,26.10
2013,05,05,12,35,26.20
2013,05,05,12,36,26.20
2013,05,05,12,37,26.20
2013,05,05,12,38,26.20
2013,05,05,12,39,26.10
2013,05,05,12,40,26.10
2013,05,05,12,41,26.10
2013,05,05,12,42,26.20
2013,05,05,12,43,26.20
2013,05,05,12,44,26.40
2013,05,05,12,45,26.40
2013,05,05,12,46,26.60
2013,05,05,12,47,26.50
2013,05,05,12,48,26.40
2013,05,05,12,49,26.30
2013,05,05,12,50,26.20
2013,05,05,12,51,26.20
2013,05,05,12,52,26.20
2013,05,05,12,53,26.20
2013,05,05,12,54,26.20
2013,05,05,12,55,26.20
2013,05,05,12,56,26.20
2013,05,05,12,57,26.20
2013,05,05,12,58,26.20
2013,05,05,12,59,26.30
2013,05,05,13,00,26.40
2013,05,05,13,01,26.60
2013,05,05,13,02,26.60
2013,05,05,13,03,26.70
2013,05,05,13,04,26.80
2013,05,05,13,05,26.80
2013,05,05,13,06,26.70
2013,05,05,13,07,26.70
2013,05,05,13,08,26.70
2013,05,05,13,09,26.70
2013,05,05,13,10,26.80
2013,05,05,13,11,26.80
2013,05,05,13,12,26.80
2013,05,05,13,13,26.70
2013,05,05,13,14,26.80
2013,05,05,13,15,26.80
2013,05,05,13,16,26.90
2013,05,05,13,17,26.90
2013,05,05,13,18,26.80
2013,05,05,13,19,26.70
2013,05,05,13,20,26.70
2013,05,05,13,21,26.70
2013,05,05,13,22,26.70
2013,05,05,13,23,26.70
2013,05,05,13,24,26.70
2013,05,05,13,25,26.80
2013,05,05,13,26,26.80
2013,05,05,13,27,26.70
2013,05,05,13,28,26.70
2013,05,05,13,29,26.80
2013,05,05,13,30,26.90
2013,05,05,13,31,27.00
2013,05,05,13,32,27.10
2013,05,05,13,33,27.10
2013,05,05,13,34,27.00
2013,05,05,13,35,26.90
2013,05,05,13,36,26.80
2013,05,05,13,37,26.80
2013,05,05,13,38,26.80
2013,05,05,13,39,26.80
2013,05,05,13,40,26.80
2013,05,05,13,41,26.80
2013,05,05,13,42,26.80
2013,05,05,13,43,26.80
2013,05,05,13,44,26.90
2013,05,05,13,45,27.00
2013,05,05,13,46,27.10
2013,05,05,13,47,27.10
2013,05,05,13,48,27.00
2013,05,05,13,49,26.90
2013,05,05,13,50,26.80
2013,05,05,13,51,26.80
2013,05,05,13,52,26.80
2013,05,05,13,53,27.00
2013,05,05,13,54,27.20
2013,05,05,13,55,27.30
2013,05,05,13,56,27.40
2013,05,05,13,57,27.40
2013,05,05,13,58,27.40
2013,05,05,13,59,27.30
2013,05,05,14,00,27.30
2013,05,05,14,01,27.30
2013,05,05,14,02,27.30
2013,05,05,14,03,27.30
2013,05,05,14,04,27.30
2013,05,05,14,05,27.40
2013,05,05,14,06,27.40
2013,05,05,14,07,27.50
2013,05,05,14,08,27.60
2013,05,05,14,09,27.60
2013,05,05,14,10,27.60
2013,05,05,14,11,27.60
2013,05,05,14,12,27.60
2013,05,05,14,13,27.70
2013,05,05,14,14,27.70
2013,05,05,14,15,27.70
2013,05,05,14,16,27.70
2013,05,05,14,17,27.70
2013,05,05,14,18,27.70
2013,05,05,14,19,27.70
2013,05,05,14,20,27.80
2013,05,05,14,21,27.90
2013,05,05,14,22,27.90
2013,05,05,14,23,27.90
2013,05,05,14,24,27.80
2013,05,05,14,25,27.80
2013,05,05,14,26,27.80
2013,05,05,14,27,27.70
2013,05,05,14,28,27.80
2013,05,05,14,29,27.80
2013,05,05,14,30,27.80
2013,05,05,14,31,27.90
2013,05,05,14,32,27.90
2013,05,05,14,33,27.70
2013,05,05,14,34,27.60
2013,05,05,14,35,27.40
2013,05,05,14,36,27.40
2013,05,05,14,37,27.30
2013,05,05,14,38,27.30
2013,05,05,14,39,27.40
2013,05,05,14,40,27.50
2013,05,05,14,41,27.60
2013,05,05,14,42,27.60
2013,05,05,14,43,27.60
2013,05,05,14,44,27.70
2013,05,05,14,45,27.70
2013,05,05,14,46,27.90
2013,05,05,14,47,28.00
2013,05,05,14,48,28.00
2013,05,05,14,49,28.00
2013,05,05,14,50,28.00
2013,05,05,14,51,28.10
2013,05,05,14,52,28.00
2013,05,05,14,53,28.00
2013,05,05,14,54,27.90
2013,05,05,14,55,27.90
2013,05,05,14,56,27.90
2013,05,05,14,57,27.90
2013,05,05,14,58,27.90
2013,05,05,14,59,27.90
2013,05,05,15,00,27.90
2013,05,05,15,01,27.50
2013,05,05,15,02,27.30
2013,05,05,15,03,27.30
2013,05,05,15,04,27.30
2013,05,05,15,05,27.30
2013,05,05,15,06,27.30
2013,05,05,15,07,27.20
2013,05,05,15,08,27.20
2013,05,05,15,09,27.20
2013,05,05,15,10,27.30
2013,05,05,15,11,27.30
2013,05,05,15,12,27.30
2013,05,05,15,13,27.30
2013,05,05,15,14,27.20
2013,05,05,15,15,27.20
2013,05,05,15,16,27.20
2013,05,05,15,17,27.30
2013,05,05,15,18,27.30
2013,05,05,15,19,27.30
2013,05,05,15,20,27.10
2013,05,05,15,21,27.10
2013,05,05,15,22,27.10
2013,05,05,15,23,27.30
2013,05,05,15,24,27.50
2013,05,05,15,25,27.60
2013,05,05,15,26,27.70
2013,05,05,15,27,27.80
2013,05,05,15,28,27.80
2013,05,05,15,29,27.90
2013,05,05,15,30,27.90
2013,05,05,15,31,28.00
2013,05,05,15,32,28.00
2013,05,05,15,33,28.00
2013,05,05,15,34,28.00
2013,05,05,15,35,28.00
2013,05,05,15,36,27.90
2013,05,05,15,37,27.90
2013,05,05,15,38,27.70
2013,05,05,15,39,27.70
2013,05,05,15,40,27.60
2013,05,05,15,41,27.60
2013,05,05,15,42,27.70
2013,05,05,15,43,27.60
2013,05,05,15,44,27.50
2013,05,05,15,45,27.40
2013,05,05,15,46,27.40
2013,05,05,15,47,27.40
2013,05,05,15,48,27.40
2013,05,05,15,49,27.30
2013,05,05,15,50,27.10
2013,05,05,15,51,26.80
2013,05,05,15,52,26.60
2013,05,05,15,53,26.70
2013,05,05,15,54,26.90
2013,05,05,15,55,27.10
2013,05,05,15,56,27.20
2013,05,05,15,57,27.10
2013,05,05,15,58,27.10
2013,05,05,15,59,27.20
2013,05,05,16,00,27.20
2013,05,05,16,01,27.20
2013,05,05,16,02,27.20
2013,05,05,16,03,27.20
2013,05,05,16,04,27.30
2013,05,05,16,05,27.20
2013,05,05,16,06,26.90
2013,05,05,16,07,26.80
2013,05,05,16,08,26.80
2013,05,05,16,09,26.80
2013,05,05,16,10,26.70
2013,05,05,16,11,26.70
2013,05,05,16,12,26.80
2013,05,05,16,13,26.80
2013,05,05,16,14,26.80
2013,05,05,16,15,27.00
2013,05,05,16,16,27.00
2013,05,05,16,17,26.90
2013,05,05,16,18,27.00
2013,05,05,16,19,27.10
2013,05,05,16,20,27.30
2013,05,05,16,21,27.30
2013,05,05,16,22,27.40
2013,05,05,16,23,27.30
2013,05,05,16,24,27.30
2013,05,05,16,25,27.20
2013,05,05,16,26,27.20
2013,05,05,16,27,27.20
2013,05,05,16,28,27.10
2013,05,05,16,29,27.20
2013,05,05,16,30,27.30
2013,05,05,16,31,27.30
2013,05,05,16,32,27.30
2013,05,05,16,33,27.30
2013,05,05,16,34,27.30
2013,05,05,16,35,27.30
2013,05,05,16,36,27.40
2013,05,05,16,37,27.50
2013,05,05,16,38,27.60
2013,05,05,16,39,27.60
2013,05,05,16,40,27.70
2013,05,05,16,41,27.70
2013,05,05,16,42,27.70
2013,05,05,16,43,27.80
2013,05,05,16,44,27.80
2013,05,05,16,45,27.90
2013,05,05,16,46,27.90
2013,05,05,16,47,27.90
2013,05,05,16,48,27.70
2013,05,05,16,49,27.60
2013,05,05,16,50,27.50
2013,05,05,16,51,27.30
2013,05,05,16,52,27.30
2013,05,05,16,53,27.40
2013,05,05,16,54,27.40
2013,05,05,16,55,27.40
2013,05,05,16,56,27.30
2013,05,05,16,57,27.30
2013,05,05,16,58,27.30
2013,05,05,16,59,27.30
2013,05,05,17,00,27.20
2013,05,05,17,01,27.00
2013,05,05,17,02,26.90
2013,05,05,17,03,26.90
2013,05,05,17,04,26.90
2013,05,05,17,05,26.90
2013,05,05,17,06,27.10
2013,05,05,17,07,27.20
2013,05,05,17,08,27.20
2013,05,05,17,09,27.10
2013,05,05,17,10,27.10
2013,05,05,17,11,27.00
2013,05,05,17,12,26.80
2013,05,05,17,13,26.90
2013,05,05,17,14,26.90
2013,05,05,17,15,27.00
2013,05,05,17,16,27.10
2013,05,05,17,17,27.30
2013,05,05,17,18,27.40
2013,05,05,17,19,27.60
2013,05,05,17,20,27.60
2013,05,05,17,21,27.60
2013,05,05,17,22,27.60
2013,05,05,17,23,27.70
2013,05,05,17,24,27.80
2013,05,05,17,25,27.90